Location: Huberhof
(49.2050°N, 7.4980°E)
Time: 01:17:09
(UTC+00:00)

CZ-4B R/B - Pass Details

Date: 29 October 2020
Orbit: 808 x 882 km, 99.1° (Epoch: 26 November)

Event Time Altitude Azimuth Distance (km) Brightness Sun altitude
Rises 16:41:54 0° 164° (SSE) 3,449 6.4 -5.3°
Reaches altitude 10° 16:44:18 10° 165° (SSE) 2,507 5.7 -5.7°
Maximum altitude 16:49:53 85° 253° (WSW) 867 3.4 -6.6°
Drops below altitude 10° 16:55:25 10° 344° (NNW) 2,477 5.7 -7.4°
Sets 16:57:46 0° 345° (NNW) 3,405 6.4 -7.8°
